User: anonymous   Login
Location: Unspecified
(0.0000°N, 0.0000°E)
Time: 23:01:23
(UTC+00:00)
Language:

BEIDOU 3 IGSO-2 - Orbit

View from above orbital plane
View from above orbital plane
View from above satellite
View from above satellite

Ground track
Ground track

The orbit is defined by the following mean orbital elements,

1 44337U          26139.63539042 +.00000000 +00000-0 +00000-0 0 00007
2 44337  55.2397 159.1126 0039530 216.4700 210.4277  1.00275192    09
Epoch (UTC): 19 May 2026 15:14:57
Eccentricity: 0.0039530
inclination: 55.2397°
perigee height: 35619 km
apogee height: 35952 km
right ascension of ascending node: 159.1126°
argument of perigee: 216.4700°
revolutions per day: 1.00275192
mean anomaly at epoch: 210.4277°

The dashed part of the orbit path shows where the satellite is in the earth's shadow,  

DLR